Вернуться в каталог

STARLINK-35814

АктивенСвязьVLEO
NORAD 66576·PAYLOAD·🇺🇸 United States

Запущен Nov 21, 2025 с Cape Canaveral Space Force Station

Loading…

Ближайшие Пролёты (ближайшие 24 часа)

TLE

СвежийSource: CelesTrak SupGP

Эпоха: Sep 15, 2026, 04:06 UTC

1 66576C 25268V   26258.17131944  .00044252  00000+0  16022-2 0  2583
2 66576  43.0033 357.0723 0001629 263.8870 228.5517 15.27569104    15

Отслеживайте STARLINK-35814 в реальном времени с AllMySat

Download on the App Store